Location: Newark
(50.0306°N, 2.3272°E)
Time: 09:42:02
(UTC+00:00)

Transit 2A Rocket - Pass Details

Date: 07 December 2019
Orbit: 593 x 910 km, 66.7° (Epoch: 19 January)

Event Time Altitude Azimuth Distance (km) Brightness Sun altitude
Rises 16:39:02 0° 193° (SSW) 2,976 8.7 -7.7°
Reaches altitude 10° 16:41:29 10° 186° (S) 2,027 7.7 -8.0°
Maximum altitude 16:45:41 38° 118° (ESE) 936 5.2 -8.6°
Enters shadow 16:49:30 11° 51° (NE) 1,864 6.4 -9.2°
Drops below altitude 10° 16:49:43 10° 50° (NE) 1,947 - -9.2°
Sets 16:52:02 0° 42° (NE) 2,844 - -9.6°
